星链-4186 (STARLINK-4186 )

导读 | 星芒AI

STARLINK-4186 是 SpaceX Starlink 卫星互联网项目中的一颗低轨卫星,属于第 6 批次发射的星链卫星之一。该卫星运行在约 550 公里的轨道高度,旨在为全球用户提供高速互联网服务。Starlink 项目通过部署大量卫星,构建一个覆盖广泛的通信网络,特别服务于传统网络难以覆盖的偏远地区。STARLINK-4186 采用先进推进系统和激光通信技术,具备自动避障功能,有助于提升网络稳定性和减少太空碎片风险。

基本信息
目录编号:
52880
目录名称:
STARLINK-4186
国际标识:
2022-062BC
轨道中心:
EARTH
卫星名称:
星链-4186
卫星全名:
星链-4186 (STARLINK-4186 )
卫星状态:
在轨 (已飞行1283 天)
发射日期:
2022-06-17 UTC
国别 :
美国 (US)
星等 :
--
轨道信息
数据来源 国际轨道数据
星历时间: 2025-12-20T18:18:26+0800
19小时前
查看轨道信息
半长轴: 6917.891km
偏心率: 0.0001297
轨道倾角: 53.219°
近地点辐角 88.974°
升交点赤经 9.935°
平近点角 271.140°
近地点: 538.856km
远地点: 540.652km
周期: 95.438分钟
每日圈数: 15.088368
详细信息
固有亮度:
5
最大亮度:
2.5
卫星平台:
Starlink v1.5
覆盖范围:
全球
运营商:
太空探索技术公司
运营商所在国:
美国
制造商(研发单位):
太空探索技术公司
制造商所在国:
美国
使用方式:
暂无
卫星简介
星链(Starlink)计划是由太空探索技术公司(SpaceX)提出的一个巨型低轨卫星互联网星座项目,计划在2019年至2024年间在太空搭建由约1.2万颗卫星组成的“星链”网络,其中1584颗将部署在地球上空550千米处的近地轨道,并从2020年开始工作。该卫星仍在工作。
2D轨道图
3D轨道图
轨道高度分析图
轨道倾角分析图
轨道综合分析图
查看轨道综合分析图